Volver al catálogo

STARLINK-37758

ActivoComunicacionesSSO
NORAD 69219·PAYLOAD·🇺🇸 United States

Lanzado May 26, 2026 desde Vandenberg Space Force Base

Loading…

Próximos Pases (próximas 24 horas)

TLE

ActualizadoSource: CelesTrak SupGP

Época: Sep 14, 2026, 21:34 UTC

1 69219C 26115J   26257.89909722  .00030170  00000+0  93666-3 0  2570
2 69219  97.2835 274.0623 0001450  87.6241 184.7447 15.33420087    14

Sigue STARLINK-37758 en tiempo real con AllMySat

Download on the App Store